User: anonymous
Location: Unspecified
(0.0000°N, 0.0000°E)
Time: 00:17:44
(UTC+02:00)
Language:

Cosmos 1943 Rocket - Orbit

View from above orbital plane
View from above orbital plane
View from above satellite
View from above satellite

Ground track
Ground track

The orbit data is extracted from the following two-line orbital elements,

1 19120U 88039B   14205.11925594  .00000003  00000-0  24314-4 0  1071
2 19120 071.0156 042.4789 0021942 006.1165 132.6488 14.19038959356146
Epoch (UTC): 24 July 2014 02:51:43
Eccentricity: 0.0021942
inclination: 71.0156°
perigee height: 813 km
apogee height: 844 km
right ascension of ascending node: 42.4789°
argument of perigee: 6.1165°
revolutions per day: 14.19038959
mean anomaly at epoch: 132.6488°
orbit number at epoch: 35614

The dashed part of the orbit path shows where the satellite is in the earth's shadow,  

DLR